EW2167 Weather Reports


Display with metric or nautical units.
time (UTC)temp
F
wind
direction
speed
MPH
gust
MPH
rain 1hr
in
rain 24hr
in
rain mn
in
humidity
%
barometer
mb
20260508113030 44 212 3.0 6.0 0.00 0.00 0.00 81 1014.7
20260508111549 42 205 3.0 6.0 0.00 0.00 0.00 82 1014.5
20260508110032 42 209 3.0 5.0 0.00 0.00 0.00 84 1014.5
20260508104530 42 210 3.0 5.0 0.00 0.00 0.00 84 1014.4
20260508103033 43 213 3.0 5.0 0.00 0.00 0.00 82 1014.4
20260508101538 44 214 2.0 5.0 0.00 0.00 0.00 78 1014.5
20260508100030 44 216 3.0 4.0 0.00 0.00 0.00 80 1014.3
20260508094529 45 226 2.0 5.0 0.00 0.00 0.00 80 1014.4
20260508093032 45 227 2.0 5.0 0.00 0.00 0.00 80 1014.4
20260508091531 45 230 2.0 4.0 0.00 0.00 0.00 79 1014.2
20260508090035 44 230 2.0 5.0 0.00 0.00 0.00 80 1014.4
20260508084532 43 227 3.0 5.0 0.00 0.00 0.00 81 1014.3
20260508083035 43 213 3.0 6.0 0.00 0.00 0.00 80 1014.3
20260508081530 43 232 3.0 6.0 0.00 0.00 0.00 80 1014.2
20260508080035 43 234 3.0 6.0 0.00 0.00 0.00 80 1014.2
20260508074528 42 228 3.0 6.0 0.00 0.00 0.00 82 1014.3
20260508073032 42 232 2.0 4.0 0.00 0.00 0.00 82 1014.3
20260508071530 42 234 3.0 5.0 0.00 0.00 0.00 82 1014.3
20260508070029 43 217 2.0 5.0 0.00 0.00 0.00 79 1014.5
20260508064538 42 211 3.0 5.0 0.00 0.00 0.00 80 1014.6
20260508063030 43 230 2.0 4.0 0.00 0.00 0.00 81 1014.9
20260508061534 44 236 3.0 5.0 0.00 0.00 0.00 78 1015.1
20260508060029 44 236 3.0 5.0 0.00 0.00 0.00 76 1015.1
20260508054535 44 232 2.0 5.0 0.00 0.00 0.00 77 1015.2
20260508053035 44 236 3.0 5.0 0.00 0.00 0.00 75 1015.1
20260508051533 45 236 2.0 4.0 0.00 0.00 0.00 76 1015.1
20260508050032 46 239 2.0 6.0 0.00 0.00 0.00 69 1015.0
20260508044530 46 233 3.0 8.0 0.00 0.00 0.00 73 1015.1
20260508043032 46 229 3.0 7.0 0.00 0.00 0.00 73 1015.1
20260508041530 46 239 2.0 7.0 0.00 0.00 0.00 72 1015.2
20260508040037 45 232 2.0 5.0 0.00 0.00 0.00 75 1015.2
20260508034531 45 219 3.0 7.0 0.00 0.00 0.00 74 1015.1
20260508033033 44 221 2.0 5.0 0.00 0.00 0.00 79 1015.2
20260508031533 44 0 0.0 0.0 0.00 0.00 0.00 80 1015.3
20260508030033 44 0 0.0 0.0 0.00 0.00 0.00 82 1015.1
20260508024542 45 0 0.0 0.0 0.00 0.00 0.00 81 1014.9
20260508023033 46 0 0.0 0.0 0.00 0.00 0.00 75 1015.1
20260508021535 46 0 0.0 0.0 0.00 0.00 0.00 78 1014.9
20260508020030 47 0 0.0 0.0 0.00 0.00 0.00 71 1014.9
20260508014545 47 0 0.0 0.0 0.00 0.00 0.00 70 1014.9
20260508013033 48 0 0.0 0.0 0.00 0.00 0.00 69 1014.7
20260508011535 48 0 0.0 0.0 0.00 0.00 0.00 69 1014.7
20260508010033 48 0 0.0 0.0 0.00 0.00 0.00 71 1014.7
20260508004531 51 0 0.0 0.0 0.00 0.00 0.00 66 1014.6
20260508003051 52 0 0.0 0.0 0.00 0.00 0.00 66 1014.5
20260508001530 55 0 0.0 1.0 0.00 0.00 0.00 52 1014.3
20260508000037 56 269 0.0 4.0 0.00 0.00 0.00 48 1014.3
20260507234530 57 0 0.0 6.0 0.00 0.00 0.00 50 1014.5
20260507233036 57 0 0.0 6.0 0.00 0.00 0.00 45 1014.4
20260507231531 58 223 1.0 5.0 0.00 0.00 0.00 47 1014.3
20260507230030 59 225 1.0 5.0 0.00 0.00 0.00 44 1014.3
20260507224541 59 0 1.0 7.0 0.00 0.00 0.00 42 1014.3
20260507223033 58 0 0.0 5.0 0.00 0.00 0.00 44 1014.3
20260507221532 60 264 2.0 7.0 0.00 0.00 0.00 42 1014.3
20260507220032 59 0 0.0 8.0 0.00 0.00 0.00 40 1014.2
20260507214530 60 0 0.0 10.0 0.00 0.00 0.00 44 1014.4
20260507213032 60 238 5.0 10.0 0.00 0.00 0.00 42 1014.4
20260507211530 60 346 1.0 14.0 0.00 0.00 0.00 44 1014.4
20260507210035 59 352 3.0 10.0 0.00 0.00 0.00 44 1014.5
20260507204531 60 329 2.0 10.0 0.00 0.00 0.00 44 1014.4
20260507203032 60 298 3.0 10.0 0.00 0.00 0.00 46 1014.4
20260507201533 58 41 2.0 7.0 0.00 0.00 0.00 43 1014.3
20260507200031 59 22 6.0 14.0 0.00 0.00 0.00 41 1014.4
20260507194537 60 213 3.0 8.0 0.00 0.00 0.00 45 1014.5
20260507193035 59 45 5.0 12.0 0.00 0.00 0.00 43 1014.6
20260507191530 59 47 5.0 11.0 0.00 0.00 0.00 47 1014.7
20260507190035 58 30 5.0 13.0 0.00 0.00 0.00 42 1014.9
20260507184529 58 352 7.0 16.0 0.00 0.00 0.00 45 1014.9
20260507183032 58 15 5.0 12.0 0.00 0.00 0.00 47 1014.9
20260507181531 58 257 4.0 13.0 0.00 0.00 0.00 48 1015.1
20260507180040 58 0 2.0 12.0 0.00 0.00 0.00 50 1015.1
20260507174530 57 0 3.0 10.0 0.00 0.00 0.00 50 1015.2
20260507173034 58 352 1.0 14.0 0.00 0.00 0.00 45 1015.4
20260507171532 57 72 1.0 9.0 0.00 0.00 0.00 47 1015.7
20260507170034 57 293 3.0 15.0 0.00 0.00 0.00 50 1015.9
20260507164531 56 333 5.0 9.0 0.00 0.00 0.00 47 1016.0
20260507163032 56 179 3.0 12.0 0.00 0.00 0.00 50 1016.0
20260507161530 56 313 2.0 11.0 0.00 0.00 0.00 57 1016.0
20260507160034 55 336 2.0 7.0 0.00 0.00 0.00 52 1016.1
20260507154532 54 342 3.0 9.0 0.00 0.00 0.00 47 1016.0
20260507153035 54 23 3.0 9.0 0.00 0.00 0.00 46 1016.0
20260507151533 54 207 2.0 10.0 0.00 0.00 0.00 49 1015.9
20260507150030 53 36 2.0 8.0 0.00 0.00 0.00 47 1016.1
20260507144534 53 217 2.0 10.0 0.00 0.00 0.00 51 1016.0
20260507143033 53 329 2.0 12.0 0.00 0.00 0.00 52 1016.0
20260507141530 52 294 2.0 9.0 0.00 0.00 0.00 50 1016.1
20260507140033 52 306 2.0 10.0 0.00 0.00 0.00 54 1016.0
20260507134532 51 12 5.0 10.0 0.00 0.00 0.00 51 1016.0
20260507133033 50 32 4.0 9.0 0.00 0.00 0.00 60 1015.9
20260507131539 50 17 2.0 7.0 0.00 0.00 0.00 64 1015.9
20260507130030 49 0 1.0 8.0 0.00 0.00 0.00 67 1016.0
20260507124533 48 0 1.0 4.0 0.00 0.00 0.00 65 1015.9
20260507123030 47 0 0.0 5.0 0.00 0.00 0.00 68 1016.0
20260507121531 46 0 1.0 4.0 0.00 0.00 0.00 69 1015.9
20260507120032 45 0 0.0 3.0 0.00 0.00 0.00 74 1015.9
20260507114532 44 320 0.0 5.0 0.00 0.00 0.00 74 1015.9